[[[{"header":{"parameterUnit":"kt","parameterCategory":2,"dx":1,"dy":1,"la1":30.253999710083008,"la2":30.299108505249023,"lo1":-89.0895004272461,"lo2":-89.04439544677734,"nx":28,"ny":28,"refTime":"2022-10-22T21:00:00:Z","depth":0,"parameterNumber":1,"parameterNumberName":"U-component_of_WINDS"},"data":[-7.5016,-7.5172,-7.5178,-7.536,-7.5396,-7.552,-7.5566,-7.5627,-7.5677,-7.5826,-7.5914,-7.5936,-7.5988,-7.6094,-7.6188,-7.6196,-7.6233,-7.6285,-7.6284,-7.6051,-7.6019,-7.5988,-7.5949,-7.6294,-7.6295,-7.6521,-7.6524,-7.6525,-7.4843,-7.488,-7.4979,-7.5077,-7.5161,-7.5116,-7.5191,-7.5263,-7.5376,-7.544,-7.5526,-7.5658,-7.5764,-7.5799,-7.5902,-7.5975,-7.5957,-7.6001,-7.5993,-7.6001,-7.5754,-7.5713,-7.6013,-7.6013,-7.6013,-7.6013,-7.6013,-7.6013,-7.453,-7.4624,-7.4686,-7.4793,-7.4845,-7.4911,-7.5002,-7.5026,-7.5122,-7.5229,-7.5218,-7.5346,-7.541,-7.5537,-7.5581,-7.568,-7.5632,-7.5681,-7.5693,-7.5704,-7.5714,-7.5378,-7.5699,-7.5698,-7.5697,-7.5697,-7.5696,0,-7.43,-7.4298,-7.4392,-7.4489,-7.4567,-7.4643,-7.4712,-7.4769,-7.4766,-7.4847,-7.4962,-7.503,-7.5164,-7.5273,-7.5371,-7.5406,-7.5363,-7.5362,-7.5395,-7.5398,-7.5389,-7.539,-7.4982,-7.5351,-7.5348,-7.5346,-7.5345,-7.5343,-7.3979,-7.409,-7.4158,-7.4224,-7.4263,-7.437,-7.4434,-7.4424,-7.4493,-7.4577,-7.4662,-7.4772,-7.4858,-7.5045,-7.5071,-7.5171,-7.515,-7.529,-7.5165,-7.5165,-7.5147,-7.5138,-7.5147,-7.5312,-7.5316,-7.532,-7.5322,0,-7.3797,-7.3805,-7.3978,-7.4034,-7.4052,-7.4168,-7.4216,-7.4311,-7.4324,-7.4455,-7.4486,-7.4506,-7.462,-7.4624,-7.4757,-7.4755,-7.4945,-7.4926,-7.4922,-7.4916,-7.5038,-7.5024,-7.5441,-7.5493,-7.5141,-7.5145,-7.5147,0,-7.3524,-7.3671,-7.3672,-7.3772,-7.3934,-7.3918,-7.4079,-7.4105,-7.4159,-7.4263,-7.4217,-7.4315,-7.4304,-7.4404,-7.4402,-7.4559,-7.4585,-7.4591,-7.4588,-7.4593,-7.4591,-7.4625,-7.4606,-7.4582,-7.458,-7.4578,-7.4577,0,-7.3234,-7.3408,-7.3571,-7.3611,-7.3685,-7.3763,-7.3797,-7.3857,-7.3921,-7.4005,-7.4045,-7.4146,-7.4199,-7.4277,-7.4272,-7.4186,-7.4466,-7.4347,-7.4471,-7.4472,-7.4529,-7.4524,-7.4897,-7.4574,-7.4573,-7.4573,-7.4572,0,-7.3011,-7.3096,-7.3333,-7.3392,-7.3438,-7.3547,-7.3641,-7.3736,-7.3803,-7.3807,-7.3873,-7.384,-7.3981,-7.3862,-7.4055,-7.3944,-7.4,-7.4019,-7.4028,-7.4036,-7.3902,-7.4106,-7.4465,-7.4499,-7.405,-7.4046,-7.4042,0,-7.2675,-7.2917,-7.2902,-7.3129,-7.324,-7.3176,-7.3298,-7.3358,-7.3374,-7.347,-7.3489,-7.36,-7.3512,-7.3547,-7.3643,-7.3665,-7.3809,-7.3646,-7.3783,-7.3788,-7.3761,-7.4093,-7.4142,-7.4386,-7.3987,-7.3992,-7.3997,0,-7.2414,-7.2501,-7.2543,-7.2586,-7.2663,-7.2757,-7.2897,-7.3002,-7.3066,-7.3141,-7.3256,-7.3415,-7.3353,-7.3412,-7.3396,-7.3495,-7.3711,-7.3416,-7.3417,-7.3466,-7.396,-7.4006,-7.4047,-7.3678,-7.3685,-7.3691,-7.3953,0,-7.2069,-7.2191,-7.2304,-7.2404,-7.2477,-7.262,-7.262,-7.2697,-7.2672,-7.2684,-7.2856,-7.2907,-7.3016,-7.3065,-7.3043,-7.327,-7.3231,-7.3165,-7.3046,-7.3266,-7.3351,-7.3387,-7.2918,-7.2914,-7.2911,-7.2909,0,0,-7.1743,-7.1916,-7.1896,-7.2029,-7.2088,-7.2019,-7.2171,-7.2221,-7.2325,-7.2367,-7.2302,-7.2531,-7.2576,-7.2784,-7.2852,-7.2898,-7.2938,-7.2861,-7.3162,-7.319,-7.3216,-7.3308,-7.3345,-7.2904,-7.2903,-7.2902,-7.2901,0,-7.1615,-7.1661,-7.1812,-7.1863,-7.1936,-7.1941,-7.1978,-7.2039,-7.2054,-7.2222,-7.2161,-7.2265,-7.245,-7.2503,-7.2555,-7.2837,-7.2784,-7.2871,-7.302,-7.3133,-7.3165,-7.3193,-7.329,-7.3326,-7.2893,-7.2894,-7.2894,0,-7.1354,-7.1398,-7.1471,-7.1604,-7.1651,-7.1768,-7.1643,-7.1773,-7.1859,-7.1776,-7.1944,-7.1973,-7.2045,-7.2243,-7.2332,-7.2274,-7.2644,-7.2529,-7.2548,-7.2556,-7.2665,-7.2703,-7.2738,-7.2283,-7.2281,-7.2279,0,0,-7.1243,-7.1356,-7.1398,-7.1576,-7.161,-7.162,-7.1683,-7.1663,-7.1729,-7.1756,-7.1791,-7.1858,-7.1964,-7.2035,-7.2136,-7.2354,-7.2366,-7.2454,-7.2483,-7.2506,-7.2528,-7.2642,-7.2681,-7.2271,-7.2271,-7.2271,0,0,-7.119,-7.1245,-7.1207,-7.1413,-7.1478,-7.1531,-7.1639,-7.1595,-7.1685,-7.1668,-7.1643,-7.166,-7.1845,-7.1876,-7.1768,-7.2093,-7.1976,-7.2002,-7.2065,-7.2101,-7.213,-7.2116,-7.1645,0,0,0,0,0,-7.1057,-7.1237,-7.1203,-7.1237,-7.1405,-7.155,-7.1571,-7.1554,-7.147,-7.1556,-7.1578,-7.1518,-7.1812,-7.1715,-7.175,-7.187,-7.2167,-7.2185,-7.2203,-7.2336,-7.2374,-7.2406,0,0,0,0,0,0,-7.107,-7.1112,-7.1198,-7.1259,-7.1297,-7.1543,-7.1397,-7.1398,-7.146,-7.1446,-7.1516,-7.152,-7.1508,-7.1696,-7.1728,-7.1842,-7.1635,-7.2174,-7.219,-7.2204,-7.2349,-7.238,-7.2406,0,0,0,0,0,-7.1081,-7.1114,-7.1387,-7.1257,-7.1289,-7.1309,-7.139,-7.1389,-7.1437,-7.1471,-7.1474,-7.1418,-7.1512,-7.1538,-7.1715,-7.1828,-7.1613,-7.1624,-7.2184,-7.2196,-7.2207,-7.2364,0,0,0,0,0,0,-7.1088,-7.1115,-7.1393,-7.1402,-7.1186,-7.1295,-7.1311,-7.1383,-7.1458,-7.1463,-7.1372,-7.136,-7.1517,-7.1536,-7.1556,-7.1824,-7.1595,-7.1607,-7.1614,-7.2193,-7.2203,-7.2212,0,0,0,0,0,0,-7.1096,-7.1123,-7.1398,-7.131,-7.1309,-7.1282,-7.1296,-7.1445,-7.146,-7.1354,-7.1346,-7.1366,-7.1487,-7.1536,-7.1551,-7.1784,-7.1581,-7.1592,-7.16,-7.1605,-7.2201,-7.2209,0,0,0,0,0,0,-7.1107,-7.113,-7.1307,-7.1307,-7.1305,-7.1408,-7.1412,-7.1585,-7.1384,-7.1352,-7.1365,-7.1357,-7.1489,-7.1504,-7.1548,-7.1775,-7.1781,-7.1581,-7.1589,-7.1595,-7.1598,0,0,0,0,0,0,0,-7.1116,-7.0967,-7.1338,-7.1304,-7.1303,-7.1488,-7.149,-7.1493,-7.1382,-7.1375,-7.1367,-7.1361,-7.1515,-7.1527,-7.154,-7.1767,0,0,-7.158,-7.1586,0,0,0,0,0,0,0,0,-7.0957,-7.0964,-7.1338,-7.134,-7.1342,-7.1488,-7.149,-7.1492,-7.1381,-7.1375,-7.1369,-7.1363,-7.1518,-7.1528,-7.1539,0,0,0,0,0,0,0,0,0,0,0,0,0,0,0,-7.1339,-7.134,0,-7.1488,-7.149,-7.1492,-7.138,-7.1375,-7.137,-7.1366,-7.1521,-7.1529,-7.1538,0,0,0,0,0,0,0,0,0,0,0,0,0,0,0,0,0,0,0,0,0,0,0,0,0,0,0,0,0,0,0,0,0,0,0,0,0,0,0,0,0,0,0,0,0,0,0,0,0,0,0,0,0,0,0,0,0,0,0,0,0,0,0,0,0,0,0,0,0]}],[{"header":{"parameterUnit":"kt","parameterCategory":2,"dx":1,"dy":1,"la1":30.253999710083008,"la2":30.299108505249023,"lo1":-89.0895004272461,"lo2":-89.04439544677734,"nx":28,"ny":28,"refTime":"2022-10-22T21:00:00:Z","depth":0,"parameterNumber":2,"parameterNumberName":"V-component_of_WINDS"},"data":[-0.6072,-0.6043,-0.6023,-0.5979,-0.5954,-0.5919,-0.5901,-0.5874,-0.5847,-0.5802,-0.5772,-0.5749,-0.5713,-0.5671,-0.5637,-0.5626,-0.5612,-0.5615,-0.5602,-0.5611,-0.561,-0.561,-0.5616,-0.5612,-0.5612,-0.5595,-0.5595,-0.5595,-0.6075,-0.605,-0.6022,-0.5982,-0.5956,-0.5941,-0.5907,-0.5887,-0.5856,-0.5824,-0.5794,-0.5753,-0.5717,-0.5681,-0.5642,-0.5625,-0.5615,-0.5616,-0.5616,-0.561,-0.5619,-0.5626,-0.5624,-0.5624,-0.5624,-0.5624,-0.5624,-0.5624,-0.6073,-0.6057,-0.6022,-0.5991,-0.5966,-0.5938,-0.5918,-0.5891,-0.5862,-0.5822,-0.5805,-0.5769,-0.5733,-0.5678,-0.5655,-0.5625,-0.5621,-0.5615,-0.5613,-0.5612,-0.5612,-0.5634,-0.5618,-0.5618,-0.5618,-0.5618,-0.5618,0,-0.6066,-0.6051,-0.6024,-0.5991,-0.5967,-0.594,-0.5911,-0.5898,-0.586,-0.5838,-0.5804,-0.5781,-0.5735,-0.57,-0.5661,-0.5638,-0.5619,-0.5617,-0.5612,-0.5619,-0.5629,-0.562,-0.5633,-0.5617,-0.5617,-0.5617,-0.5617,-0.5617,-0.6061,-0.6046,-0.6001,-0.5984,-0.5964,-0.5938,-0.5918,-0.5887,-0.5867,-0.5826,-0.5812,-0.5777,-0.5748,-0.5697,-0.5664,-0.5629,-0.562,-0.5615,-0.5615,-0.5621,-0.5617,-0.5617,-0.5614,-0.5616,-0.5616,-0.5616,-0.5616,0,-0.606,-0.603,-0.6,-0.5958,-0.5947,-0.5931,-0.5894,-0.5876,-0.5852,-0.5824,-0.5815,-0.5777,-0.5745,-0.5713,-0.567,-0.5654,-0.5622,-0.5616,-0.5634,-0.563,-0.5621,-0.5621,-0.5602,-0.5596,-0.5602,-0.5602,-0.5602,0,-0.6044,-0.6025,-0.5981,-0.5966,-0.5943,-0.5912,-0.589,-0.5867,-0.5838,-0.5815,-0.5791,-0.577,-0.5734,-0.5708,-0.5685,-0.5654,-0.5647,-0.5632,-0.5626,-0.5633,-0.5635,-0.5621,-0.5621,-0.5616,-0.5616,-0.5616,-0.5617,0,-0.6043,-0.6,-0.5975,-0.596,-0.5914,-0.5902,-0.5882,-0.5849,-0.5831,-0.5801,-0.5788,-0.5756,-0.5739,-0.5713,-0.5684,-0.5684,-0.5647,-0.5642,-0.5632,-0.5632,-0.5625,-0.5625,-0.5617,-0.5617,-0.5617,-0.5617,-0.5617,0,-0.6026,-0.5999,-0.5968,-0.5928,-0.5918,-0.5902,-0.5869,-0.5848,-0.5815,-0.58,-0.5777,-0.5758,-0.5731,-0.5727,-0.5689,-0.5697,-0.568,-0.5664,-0.5663,-0.5658,-0.5654,-0.5651,-0.5648,-0.5645,-0.5653,-0.5653,-0.5654,0,-0.6032,-0.5994,-0.5969,-0.594,-0.5918,-0.5892,-0.5873,-0.5846,-0.5825,-0.5802,-0.5778,-0.5753,-0.5744,-0.5731,-0.5717,-0.569,-0.568,-0.5691,-0.5654,-0.5653,-0.5662,-0.5659,-0.5665,-0.5652,-0.5657,-0.5657,-0.5657,0,-0.6034,-0.5981,-0.5978,-0.5959,-0.5921,-0.5904,-0.5882,-0.5851,-0.5837,-0.5811,-0.579,-0.5756,-0.5746,-0.5727,-0.5709,-0.5695,-0.5686,-0.5687,-0.5686,-0.5686,-0.5658,-0.5663,-0.5661,-0.5676,-0.5676,-0.5675,-0.5659,0,-0.601,-0.5989,-0.598,-0.5943,-0.5926,-0.5907,-0.5877,-0.5862,-0.5846,-0.5824,-0.5796,-0.5768,-0.5736,-0.5727,-0.5713,-0.5692,-0.5691,-0.5682,-0.5676,-0.5675,-0.5669,-0.5667,-0.5687,-0.5687,-0.5687,-0.5686,0,0,-0.6022,-0.5992,-0.5967,-0.5947,-0.593,-0.5905,-0.5888,-0.5869,-0.5831,-0.5819,-0.5815,-0.5762,-0.574,-0.5709,-0.5706,-0.5695,-0.5687,-0.569,-0.5676,-0.5675,-0.5674,-0.5668,-0.5667,-0.5686,-0.5686,-0.5686,-0.5686,0,-0.6007,-0.5988,-0.5973,-0.5952,-0.592,-0.5899,-0.5896,-0.586,-0.5846,-0.582,-0.58,-0.5779,-0.574,-0.5718,-0.5701,-0.5693,-0.5678,-0.5686,-0.5691,-0.5675,-0.5674,-0.5673,-0.5668,-0.5666,-0.5685,-0.5685,-0.5685,0,-0.6002,-0.5977,-0.5968,-0.5931,-0.591,-0.589,-0.5876,-0.5856,-0.584,-0.5815,-0.5789,-0.577,-0.5739,-0.5715,-0.5703,-0.5699,-0.5671,-0.5677,-0.5678,-0.5676,-0.5658,-0.5658,-0.5657,-0.5664,-0.5664,-0.5664,0,0,-0.5994,-0.5975,-0.5939,-0.5926,-0.5914,-0.5884,-0.5871,-0.5854,-0.5828,-0.5818,-0.5793,-0.5767,-0.5743,-0.5728,-0.5705,-0.5684,-0.5673,-0.5675,-0.5676,-0.5677,-0.5676,-0.5659,-0.5658,-0.5665,-0.5665,-0.5665,0,0,-0.5989,-0.5948,-0.5937,-0.5918,-0.5894,-0.5857,-0.585,-0.5835,-0.5812,-0.5811,-0.5782,-0.5774,-0.5751,-0.5734,-0.5739,-0.5702,-0.5697,-0.5695,-0.5714,-0.5715,-0.5716,-0.572,-0.5721,0,0,0,0,0,-0.596,-0.5953,-0.5943,-0.5936,-0.5891,-0.5863,-0.5856,-0.5833,-0.5828,-0.5822,-0.5799,-0.5786,-0.573,-0.5734,-0.5727,-0.5721,-0.5667,-0.5666,-0.5666,-0.5686,-0.5687,-0.5688,0,0,0,0,0,0,-0.5957,-0.5948,-0.5943,-0.5907,-0.5897,-0.5863,-0.585,-0.5843,-0.5828,-0.5826,-0.5791,-0.5785,-0.5764,-0.5736,-0.573,-0.5725,-0.5723,-0.5667,-0.5666,-0.5666,-0.5687,-0.5688,-0.5688,0,0,0,0,0,-0.5954,-0.5947,-0.5881,-0.5907,-0.5898,-0.5865,-0.585,-0.5844,-0.5832,-0.5798,-0.5791,-0.5816,-0.5764,-0.5757,-0.5733,-0.5728,-0.5727,-0.5725,-0.5666,-0.5666,-0.5666,-0.5687,0,0,0,0,0,0,-0.5952,-0.5941,-0.5879,-0.5875,-0.5909,-0.5866,-0.5859,-0.5846,-0.5804,-0.5798,-0.5822,-0.5821,-0.5764,-0.5759,-0.5754,-0.5731,-0.5731,-0.5728,-0.5727,-0.5666,-0.5666,-0.5666,0,0,0,0,0,0,-0.5945,-0.5938,-0.5877,-0.588,-0.5877,-0.5867,-0.5861,-0.5837,-0.5804,-0.5831,-0.5828,-0.5822,-0.5772,-0.576,-0.5756,-0.572,-0.5733,-0.5731,-0.573,-0.5729,-0.5666,-0.5666,0,0,0,0,0,0,-0.5942,-0.5936,-0.5881,-0.5878,-0.5875,-0.5832,-0.5846,-0.5801,-0.5808,-0.5833,-0.5808,-0.5808,-0.5774,-0.5769,-0.5758,-0.5724,-0.5721,-0.5733,-0.5732,-0.5731,-0.573,0,0,0,0,0,0,0,-0.5939,-0.5983,-0.5901,-0.5877,-0.5874,-0.5841,-0.584,-0.5838,-0.5808,-0.5808,-0.5808,-0.5808,-0.5746,-0.5744,-0.5741,-0.5727,0,0,-0.5734,-0.5732,0,0,0,0,0,0,0,0,-0.5985,-0.5984,-0.5901,-0.59,-0.5899,-0.584,-0.584,-0.5839,-0.5808,-0.5808,-0.5808,-0.5808,-0.5745,-0.5743,-0.5741,0,0,0,0,0,0,0,0,0,0,0,0,0,0,0,-0.5901,-0.59,0,-0.584,-0.584,-0.5839,-0.5808,-0.5808,-0.5808,-0.5808,-0.5745,-0.5743,-0.5742,0,0,0,0,0,0,0,0,0,0,0,0,0,0,0,0,0,0,0,0,0,0,0,0,0,0,0,0,0,0,0,0,0,0,0,0,0,0,0,0,0,0,0,0,0,0,0,0,0,0,0,0,0,0,0,0,0,0,0,0,0,0,0,0,0,0,0,0,0]}]]]